sat.trackr.live / text

‹ back to catalog

COSMOS 2585 (RODNIK-S *)

NORAD 63288 · 2025-054A

PAYLOAD ACTIVE UNKNOWN

§ Identity

Operator
Country
CIS
Launch date
2025-03-16
Launch site
PLMSC
Launch vehicle
Mass (kg)
RCS (m²)

External: N2YO · Heavens-Above · Gunter

§ Orbital elements

Epoch: 2026-05-25T04:44:17.689344Z

Period
115.86 min
Inclination
82.4924°
Eccentricity
0.0025779
Mean motion
12.42866376 rev/d
Perigee alt
1,474.2 km
Apogee alt
1,514.8 km
Semi-major
7,872.6 km
B*
2.3185e-4
RAAN
92.9505°
Arg perigee
84.6633°
Mean anomaly
275.7386°
Rev number
5,400

§ Raw data

COSMOS 2585 (RODNIK-S *)1 63288U 25054A   26145.19742696  .00000042  00000+0  23185-3 0  99922 63288  82.4924  92.9505 0025779  84.6633 275.7386 12.42866376 54000

JSON: /api/v1/satellites/63288 · /tle

For live sub-satellite position, see the globe view (requires WebGL).

§ Visibility from observer

Set your observer location to see the next 7 days of passes ≥ 10°. The values pass through the URL so the page stays shareable.

No JS? Fill the form by hand. The geolocation button needs JavaScript.